FW7716 Weather Reports


time (UTC)temp
C
wind
direction
speed
KPH
gust
KPH
rain 1hr
cm
rain 24hr
cm
rain mn
cm
humidity
%
barometer
mb
20260506214536 26 247 1.6 17.7 0.00 0.00 0.00 37 1010.9
20260506213042 26 225 4.8 16.1 0.00 0.00 0.00 39 1011.1
20260506211541 26 241 4.8 19.3 0.00 0.00 0.00 38 1011.2
20260506210040 26 326 1.6 14.5 0.00 0.00 0.00 42 1011.3
20260506204538 26 260 1.6 19.3 0.00 0.00 0.00 41 1011.5
20260506203033 25 175 4.8 19.3 0.00 0.00 0.00 42 1011.8
20260506201542 25 133 3.2 12.9 0.00 0.00 0.00 45 1012.0
20260506200043 25 196 3.2 17.7 0.00 0.00 0.00 47 1012.2
20260506194546 25 152 3.2 16.1 0.00 0.00 0.00 48 1012.2
20260506193036 23 221 4.8 16.1 0.00 0.00 0.00 47 1012.6
20260506191536 24 74 3.2 12.9 0.00 0.00 0.00 45 1012.8
20260506190040 23 133 0.0 12.9 0.00 0.00 0.00 49 1012.9
20260506184539 22 202 0.0 17.7 0.00 0.00 0.00 47 1013.3
20260506183039 22 0 1.6 6.4 0.00 0.00 0.00 46 1013.4
20260506181539 21 0 0.0 9.7 0.00 0.00 0.00 46 1013.4
20260506180044 21 313 1.6 8.0 0.00 0.00 0.00 46 1013.5
20260506174538 20 0 0.0 9.7 0.00 0.00 0.00 46 1013.6
20260506173046 20 0 0.0 6.4 0.00 0.00 0.00 46 1013.9
20260506171547 19 0 1.6 8.0 0.00 0.00 0.00 47 1014.0
20260506170038 18 121 0.0 8.0 0.00 0.00 0.00 49 1014.0
20260506164547 17 0 0.0 9.7 0.00 0.00 0.00 54 1014.1
20260506163043 16 0 0.0 4.8 0.00 0.00 0.00 55 1014.2
20260506161540 15 0 0.0 8.0 0.00 0.00 0.00 59 1014.3
20260506160047 15 0 0.0 3.2 0.00 0.00 0.00 60 1014.3
20260506154549 14 164 0.0 1.6 0.00 0.00 0.00 63 1014.2
20260506153035 13 0 0.0 1.6 0.00 0.00 0.00 68 1014.3
20260506151542 12 279 0.0 1.6 0.00 0.00 0.00 69 1014.4
20260506150038 11 0 0.0 3.2 0.00 0.00 0.00 69 1014.6
20260506144539 11 188 0.0 1.6 0.00 0.00 0.00 71 1014.5
20260506143038 11 0 0.0 0.0 0.00 0.00 0.00 74 1014.4
20260506141601 8 0 0.0 0.0 0.00 0.00 0.00 83 1014.6
20260506140042 7 0 0.0 0.0 0.00 0.00 0.00 87 1014.4
20260506134542 6 0 0.0 0.0 0.00 0.00 0.00 88 1014.4
20260506133039 5 0 0.0 0.0 0.00 0.00 0.00 87 1014.4
20260506131538 5 0 0.0 0.0 0.00 0.00 0.00 87 1014.3
20260506130044 5 0 0.0 1.6 0.00 0.00 0.00 87 1014.1
20260506124541 5 0 0.0 0.0 0.00 0.00 0.00 87 1013.9
20260506123042 5 0 0.0 1.6 0.00 0.00 0.00 88 1013.9
20260506121538 5 0 0.0 0.0 0.00 0.00 0.00 87 1013.8
20260506120105 5 0 0.0 0.0 0.00 0.00 0.00 86 1013.7
20260506114545 5 0 0.0 0.0 0.00 0.00 0.00 86 1013.5
20260506113040 6 0 0.0 0.0 0.00 0.00 0.00 85 1013.5
20260506111540 6 0 0.0 0.0 0.00 0.00 0.00 86 1013.5
20260506110034 6 0 0.0 0.0 0.00 0.00 0.00 85 1013.5
20260506104533 6 0 0.0 0.0 0.00 0.00 0.00 84 1013.4
20260506103042 6 0 0.0 0.0 0.00 0.00 0.00 84 1013.3
20260506101538 7 0 0.0 0.0 0.00 0.00 0.00 83 1013.4
20260506100040 7 0 0.0 0.0 0.00 0.00 0.00 83 1013.3
20260506094537 7 0 0.0 0.0 0.00 0.00 0.00 82 1013.4
20260506093044 7 0 0.0 0.0 0.00 0.00 0.00 81 1013.4
20260506091542 7 0 0.0 0.0 0.00 0.00 0.00 79 1013.4
20260506090042 8 0 0.0 0.0 0.00 0.00 0.00 79 1013.2
20260506084538 8 0 0.0 0.0 0.00 0.00 0.00 80 1013.2
20260506083041 8 0 0.0 0.0 0.00 0.00 0.00 79 1013.1
20260506081546 8 0 0.0 0.0 0.00 0.00 0.00 80 1013.1
20260506073039 9 0 0.0 0.0 0.00 0.00 0.00 80 1012.8
20260506071542 9 0 0.0 0.0 0.00 0.00 0.00 77 1012.8
20260506061539 11 0 0.0 0.0 0.00 0.00 0.00 73 1012.3
20260506044549 13 0 0.0 1.6 0.00 0.00 0.00 65 1011.6
20260506043045 13 0 0.0 1.6 0.00 0.00 0.00 64 1011.6
20260506041548 14 0 0.0 0.0 0.00 0.00 0.00 64 1011.5
20260506040043 15 0 0.0 0.0 0.00 0.00 0.00 61 1011.2
20260506034539 16 0 0.0 0.0 0.00 0.00 0.00 59 1011.1
20260506033036 17 0 0.0 1.6 0.00 0.00 0.00 58 1010.8
20260506031555 18 0 0.0 1.6 0.00 0.00 0.00 52 1010.7
20260506030053 21 0 0.0 0.0 0.00 0.00 0.00 47 1010.7
20260506024542 22 0 0.0 0.0 0.00 0.00 0.00 42 1010.4
20260506023039 24 0 0.0 0.0 0.00 0.00 0.00 38 1010.4
20260506021537 24 0 0.0 0.0 0.00 0.00 0.00 35 1010.3
20260506020033 24 0 0.0 1.6 0.00 0.00 0.00 33 1010.4
20260506014540 24 128 0.0 3.2 0.00 0.00 0.00 32 1010.3
20260506013045 23 126 1.6 3.2 0.00 0.00 0.00 32 1010.4
20260506011537 23 0 0.0 3.2 0.00 0.00 0.00 33 1010.4
20260506010036 23 0 0.0 8.0 0.00 0.00 0.00 33 1010.7
20260506004610 23 174 3.2 8.0 0.00 0.00 0.00 32 1010.7
20260506003042 24 0 0.0 6.4 0.00 0.00 0.00 31 1011.1
20260506001540 25 130 0.0 6.4 0.00 0.00 0.00 29 1011.2
20260506000044 24 193 1.6 12.9 0.00 0.00 0.00 31 1011.3
20260505234605 24 151 4.8 11.3 0.00 0.00 0.00 33 1011.5
20260505233041 23 196 8.0 14.5 0.00 0.00 0.00 30 1011.6
20260505231541 23 269 0.0 1.6 0.00 0.00 0.00 34 1011.7
20260505230040 23 79 0.0 4.8 0.00 0.00 0.00 32 1011.9
20260505224539 23 38 0.0 6.4 0.00 0.00 0.00 30 1012.0
20260505223040 24 113 1.6 9.7 0.00 0.00 0.00 33 1012.1
20260505221551 25 107 1.6 11.3 0.00 0.00 0.00 30 1012.1
20260505220043 25 66 3.2 11.3 0.00 0.00 0.00 31 1012.3